Temp
77 77 77 77 76 77 77 77 77 78 77 78 79 78 78 79 79 80 81 80 80 80 79 78 78 79 82 79 78 78 77 77 78 77 77 77 76 77 81 78 78 76
77 77 78 78 76 78 77 79 78 78 77 77 79 78 78 79 81 81 80 80 80 81 79 79 78 79 79 79 77 77 77 78 77 82 77 76 76 76 77 77 77 76
78 77 78 78 79 78 80 80 79 79 78 79 79 79 81 81 81 80 80 81 81 82 80 79 79 79 79 78 77 78 79 75 76 77 75 74 74 74 75 78 77 78
79 79 80 81 80 80 80 79 79 79 79 79 79 82 83 85 82 82 80 81 80 81 81 80 80 80 80 79 77 77 77 76 76 75 75 75 75 76 76 75 77 77
80 79 80 81 80 80 80 80 81 80 81 80 81 81 81 80 81 83 81 80 79 80 79 80 79 80 79 78 78 77 77 75 75 74 73 74 75 77 77 77 75 76
80 79 79 80 80 79 80 81 82 82 82 82 82 83 83 82 82 83 82 81 81 82 81 81 80 80 80 79 77 77 77 75 75 74 73 73 74 74 77 76 75 74
81 80 80 81 81 81 80 81 82 82 83 84 83 83 83 82 82 82 82 82 82 81 82 80 79 79 79 78 77 76 76 75 75 74 74 73 74 74 75 75 74 73
81 81 81 81 82 82 81 82 83 82 83 83 83 84 84 83 82 83 82 82 82 81 81 80 79 79 79 79 77 76 76 77 76 74 73 73 73 72 73 75 72 71
82 82 82 81 82 83 83 84 84 84 84 84 84 84 84 84 83 84 82 82 82 81 80 80 79 79 79 78 78 77 76 76 76 74 74 73 72 72 72 72 72 71
81 82 82 82 82 83 83 84 85 85 85 85 85 85 85 85 85 84 82 80 82 81 80 80 79 79 79 79 78 78 77 75 75 74 74 74 73 73 72 71 71 70
81 82 82 82 82 83 84 85 86 86 86 86 86 86 86 85 84 84 83 81 83 81 81 79 80 79 78 79 79 78 77 76 75 74 74 73 73 73 73 71 71 70
80 81 82 82 82 83 84 84 86 86 86 86 86 86 85 86 84 85 84 82 83 82 81 80 80 79 79 78 79 78 77 76 75 75 74 74 73 72 72 71 71 71
80 81 81 82 82 84 84 84 85 87 87 86 87 86 85 82 81 81 80 83 82 81 81 80 79 79 78 78 78 78 77 76 75 74 73 73 72 72 72 71 71 71
81 81 81 81 82 82 83 84 84 85 86 86 86 85 85 84 83 82 82 82 82 81 80 80 78 78 77 77 77 77 77 76 75 74 73 72 71 71 72 71 72 72
76 78 79 80 81 81 81 82 82 82 80 83 84 84 86 86 85 85 84 84 83 81 80 79 78 78 78 77 77 76 76 75 74 73 72 71 71 72 72 72 72 73
76 77 78 78 79 80 80 81 81 81 80 79 81 83 84 83 84 85 84 83 80 78 78 78 77 77 79 79 79 77 76 76 74 72 72 71 72 72 72 73 74 74
76 77 77 77 78 79 79 79 79 80 80 78 79 80 82 81 83 84 82 82 80 78 76 76 76 76 78 72 74 76 76 74 73 72 71 71 72 72 72 72 73 73
74 75 75 75 75 74 74 74 77 77 76 77 78 79 79 81 79 80 79 79 78 77 75 74 73 75 70 71 72 73 76 74 73 72 72 72 72 72 72 71 71 71
74 75 73 71 70 71 72 72 72 73 74 75 76 77 78 77 76 77 77 77 76 74 73 72 71 69 68 70 71 71 73 75 73 72 72 71 71 72 71 71 71 70
73 73 71 70 71 71 72 73 73 72 71 72 74 74 75 75 76 76 76 75 74 73 71 71 70 69 68 69 69 69 70 74 73 72 72 71 72 72 71 70 70 69
71 70 70 71 71 72 72 73 72 70 70 71 73 73 73 73 73 72 73 73 73 72 71 71 72 67 66 67 66 67 69 73 72 73 72 72 72 71 70 70 69 69
70 69 70 72 71 71 71 71 71 71 70 70 70 70 71 73 72 73 72 71 71 71 71 70 69 64 65 65 65 66 70 72 71 70 70 70 69 69 69 69 69 68
70 69 69 70 71 71 71 71 70 70 70 70 70 70 70 71 71 71 71 70 70 70 69 67 67 64 63 63 64 65 68 70 70 70 69 69 68 68 68 69 68 69
70 69 69 70 70 70 70 70 70 70 70 70 69 70 70 70 69 69 69 70 70 69 69 67 66 64 61 61 63 65 70 69 69 68 67 68 67 68 69 69 70 72
70 69 69 69 69 70 70 69 70 69 69 68 69 69 69 69 69 68 68 68 69 69 70 68 66 64 60 60 61 63 68 68 67 66 65 64 64 63 64 65 67 69
69 69 69 68 68 69 69 69 68 68 68 68 69 69 68 68 68 67 67 67 67 68 69 67 66 65 63 59 60 61 64 67 66 64 63 62 62 62 61 62 62 62
MSLP
1014.88 1015.00 1015.20 1015.32 1015.44 1015.48 1015.56 1015.72 1015.80 1016.00 1016.04 1016.08 1016.28 1016.32 1016.32 1016.24 1016.16 1016.24 1016.28 1016.32 1016.40 1016.52 1016.56 1016.64 1016.68 1016.72 1016.68 1016.76 1016.80 1016.92 1017.04 1017.12 1017.04 1017.08 1017.28 1017.36 1017.56 1017.60 1017.68 1017.72 1017.80 1017.84
1014.72 1014.84 1014.96 1015.12 1015.24 1015.24 1015.28 1015.16 1015.40 1015.56 1015.80 1015.80 1015.80 1015.84 1015.92 1015.96 1016.00 1016.08 1016.20 1016.28 1016.32 1016.40 1016.40 1016.52 1016.60 1016.56 1016.64 1016.76 1016.84 1017.00 1017.12 1017.12 1017.28 1016.96 1017.28 1017.40 1017.40 1017.44 1017.52 1017.60 1017.68 1017.56
1014.56 1014.76 1014.96 1015.12 1015.20 1015.20 1015.16 1015.00 1015.00 1015.16 1015.36 1015.44 1015.44 1015.56 1015.72 1015.72 1015.88 1015.88 1016.00 1016.12 1016.28 1016.28 1016.36 1016.44 1016.52 1016.48 1016.52 1016.64 1016.72 1016.92 1017.08 1017.16 1017.32 1017.12 1017.20 1017.40 1017.36 1017.44 1017.44 1017.40 1017.44 1017.44
1014.36 1014.44 1014.64 1014.72 1014.76 1014.96 1014.96 1015.04 1014.96 1015.00 1015.08 1015.32 1015.40 1015.32 1015.36 1015.44 1015.56 1015.76 1015.88 1015.96 1016.16 1016.24 1016.24 1016.36 1016.40 1016.44 1016.48 1016.52 1016.68 1016.88 1016.96 1017.04 1017.04 1017.16 1017.32 1017.36 1017.44 1017.48 1017.48 1017.40 1017.40 1017.40
1014.24 1014.32 1014.36 1014.36 1014.40 1014.52 1014.68 1014.96 1015.00 1014.96 1015.04 1015.08 1015.12 1015.12 1015.28 1015.44 1015.52 1015.64 1015.76 1015.92 1016.00 1016.16 1016.20 1016.32 1016.32 1016.40 1016.40 1016.52 1016.64 1016.96 1017.04 1017.12 1017.12 1017.16 1017.36 1017.52 1017.52 1017.40 1017.32 1017.32 1017.48 1017.68
1014.00 1014.08 1014.16 1014.20 1014.24 1014.44 1014.64 1014.76 1014.72 1014.80 1014.88 1015.00 1015.04 1015.00 1015.12 1015.16 1015.36 1015.48 1015.60 1015.80 1015.88 1015.96 1016.12 1016.20 1016.28 1016.28 1016.32 1016.44 1016.60 1016.80 1016.96 1017.16 1017.16 1017.24 1017.44 1017.60 1017.60 1017.32 1017.28 1017.36 1017.60 1017.92
1013.80 1013.92 1014.08 1014.00 1014.08 1014.12 1014.36 1014.44 1014.48 1014.52 1014.64 1014.64 1014.68 1014.92 1014.92 1015.12 1015.24 1015.28 1015.36 1015.52 1015.68 1015.84 1015.96 1016.12 1016.20 1016.32 1016.24 1016.36 1016.60 1016.80 1016.92 1017.00 1017.12 1017.28 1017.48 1017.56 1017.48 1017.48 1017.36 1017.60 1017.88 1018.12
1013.52 1013.52 1013.68 1013.84 1013.96 1014.00 1014.20 1014.20 1014.20 1014.32 1014.36 1014.44 1014.68 1014.60 1014.64 1014.84 1014.92 1015.04 1015.16 1015.32 1015.52 1015.68 1015.76 1015.88 1015.96 1016.08 1016.16 1016.28 1016.60 1016.84 1016.96 1016.96 1017.16 1017.32 1017.48 1017.60 1017.60 1017.68 1017.64 1017.76 1017.88 1018.04
1013.16 1013.36 1013.44 1013.60 1013.80 1013.84 1013.96 1014.00 1014.00 1014.00 1014.00 1014.28 1014.40 1014.40 1014.32 1014.48 1014.64 1014.72 1014.96 1015.12 1015.32 1015.52 1015.64 1015.76 1015.84 1015.96 1016.00 1016.20 1016.44 1016.64 1016.84 1017.00 1017.04 1017.20 1017.36 1017.56 1017.68 1017.72 1017.92 1017.84 1017.96 1018.08
1013.04 1013.04 1013.24 1013.44 1013.64 1013.64 1013.76 1013.72 1013.72 1013.80 1013.76 1013.96 1013.96 1014.00 1014.20 1014.20 1014.28 1014.44 1014.68 1014.92 1015.16 1015.36 1015.52 1015.64 1015.76 1015.84 1015.96 1016.04 1016.28 1016.48 1016.72 1016.92 1017.04 1017.12 1017.20 1017.32 1017.48 1017.76 1017.92 1018.00 1018.08 1018.16
1012.88 1012.92 1013.12 1013.24 1013.40 1013.44 1013.52 1013.48 1013.52 1013.56 1013.52 1013.64 1013.72 1013.88 1013.88 1013.96 1014.12 1014.12 1014.44 1014.76 1014.96 1015.16 1015.32 1015.48 1015.56 1015.68 1015.88 1016.04 1016.08 1016.16 1016.40 1016.68 1016.88 1017.04 1017.20 1017.28 1017.44 1017.60 1017.76 1017.80 1017.84 1017.92
1012.76 1012.84 1012.96 1013.00 1013.08 1013.16 1013.24 1013.20 1013.16 1013.24 1013.28 1013.28 1013.36 1013.64 1013.68 1013.72 1013.96 1014.00 1014.16 1014.52 1014.60 1014.76 1014.88 1015.08 1015.20 1015.40 1015.64 1015.80 1015.92 1016.08 1016.28 1016.48 1016.68 1016.88 1017.04 1017.24 1017.44 1017.56 1017.64 1017.60 1017.72 1017.80
1012.60 1012.64 1012.60 1012.72 1012.76 1012.72 1012.72 1012.84 1012.88 1012.84 1012.88 1013.04 1012.96 1013.20 1013.48 1014.28 1014.48 1014.32 1014.60 1014.28 1014.32 1014.44 1014.68 1014.84 1015.04 1015.20 1015.40 1015.60 1015.80 1016.00 1016.24 1016.48 1016.76 1016.96 1017.16 1017.36 1017.48 1017.56 1017.56 1017.60 1017.64 1017.72
1012.24 1012.12 1012.16 1012.20 1012.24 1012.28 1012.32 1012.36 1012.48 1012.56 1012.52 1012.48 1012.60 1012.92 1013.16 1013.52 1013.76 1014.00 1014.28 1014.52 1014.12 1014.24 1014.36 1014.52 1014.84 1015.08 1015.28 1015.44 1015.64 1015.88 1016.12 1016.44 1016.68 1017.00 1017.24 1017.48 1017.60 1017.60 1017.60 1017.68 1017.68 1017.76
1011.92 1011.92 1011.84 1011.76 1011.76 1011.96 1012.08 1012.16 1012.16 1012.20 1012.28 1012.28 1012.36 1012.52 1012.56 1012.76 1013.00 1013.36 1013.84 1014.00 1013.84 1013.92 1014.20 1014.36 1014.72 1014.92 1015.08 1015.28 1015.60 1015.88 1016.00 1016.40 1016.72 1017.00 1017.28 1017.60 1017.72 1017.76 1017.76 1017.76 1017.80 1017.80
1011.32 1011.28 1011.40 1011.56 1011.64 1011.72 1011.76 1011.80 1011.84 1011.88 1012.04 1012.20 1012.16 1012.12 1012.24 1012.36 1012.60 1012.76 1013.04 1013.40 1013.76 1013.96 1014.08 1014.32 1014.52 1014.60 1014.68 1014.84 1015.08 1015.48 1015.92 1016.32 1016.72 1017.04 1017.28 1017.52 1017.72 1017.88 1017.96 1017.92 1017.88 1017.84
1010.84 1010.84 1010.92 1011.24 1011.36 1011.40 1011.44 1011.52 1011.60 1011.56 1011.68 1011.84 1011.88 1011.88 1011.92 1012.08 1012.24 1012.56 1012.80 1012.96 1013.36 1013.80 1014.12 1014.24 1014.40 1014.44 1014.48 1014.76 1015.00 1015.24 1015.64 1016.16 1016.64 1017.08 1017.28 1017.52 1017.68 1017.88 1018.08 1018.16 1018.12 1018.08
1010.64 1010.68 1010.88 1011.08 1011.32 1011.64 1011.80 1011.80 1011.56 1011.48 1011.60 1011.52 1011.60 1011.76 1011.80 1011.80 1012.16 1012.28 1012.52 1012.80 1013.20 1013.52 1013.88 1014.12 1014.40 1014.40 1014.48 1014.64 1014.88 1015.16 1015.40 1015.88 1016.36 1016.84 1017.20 1017.44 1017.64 1017.84 1018.00 1018.20 1018.36 1018.40
1010.20 1010.48 1010.96 1011.28 1011.44 1011.32 1011.00 1011.24 1011.84 1011.84 1011.52 1011.56 1011.56 1011.40 1011.52 1011.96 1012.20 1012.32 1012.56 1012.68 1013.04 1013.52 1013.88 1014.08 1014.32 1014.44 1014.40 1014.48 1014.80 1015.08 1015.36 1015.72 1016.20 1016.60 1017.04 1017.40 1017.64 1017.84 1018.08 1018.24 1018.40 1018.52
1010.44 1010.80 1011.20 1011.44 1011.48 1011.28 1010.80 1010.80 1010.96 1011.60 1011.84 1011.48 1011.36 1011.36 1011.56 1011.80 1012.08 1012.28 1012.48 1012.68 1012.88 1013.20 1013.68 1014.00 1014.24 1014.28 1014.28 1014.48 1014.76 1015.04 1015.32 1015.64 1016.12 1016.52 1016.92 1017.28 1017.60 1017.84 1018.08 1018.32 1018.48 1018.68
1011.60 1011.76 1011.88 1011.44 1011.28 1011.24 1011.24 1011.16 1011.32 1011.68 1011.76 1011.60 1011.28 1011.24 1011.36 1011.64 1011.92 1012.32 1012.44 1012.56 1012.80 1013.12 1013.56 1013.96 1014.00 1014.00 1014.16 1014.40 1014.72 1015.08 1015.36 1015.64 1016.08 1016.44 1016.92 1017.32 1017.60 1017.88 1018.12 1018.36 1018.56 1018.72
1011.72 1011.88 1011.68 1011.48 1011.32 1011.60 1011.68 1011.60 1011.48 1011.40 1011.44 1011.52 1011.40 1011.36 1011.24 1011.24 1011.52 1011.72 1012.20 1012.60 1012.80 1013.08 1013.44 1013.88 1014.04 1014.16 1014.28 1014.48 1014.76 1015.08 1015.32 1015.84 1016.24 1016.68 1017.12 1017.52 1017.88 1018.12 1018.32 1018.52 1018.64 1018.84
1011.32 1011.68 1011.56 1011.24 1011.40 1011.68 1011.68 1011.56 1011.56 1011.40 1011.24 1011.20 1011.32 1011.32 1011.44 1011.52 1011.60 1011.80 1012.00 1012.36 1012.76 1013.04 1013.36 1013.84 1014.20 1014.40 1014.36 1014.48 1014.76 1015.00 1015.44 1016.00 1016.48 1016.92 1017.32 1017.72 1018.12 1018.28 1018.48 1018.68 1018.88 1019.00
1010.56 1010.60 1010.72 1010.72 1010.92 1011.28 1011.32 1011.20 1011.08 1011.00 1011.04 1011.04 1011.28 1011.28 1011.44 1011.60 1011.76 1012.00 1012.16 1012.24 1012.52 1012.96 1013.08 1013.64 1014.24 1014.40 1014.32 1014.52 1014.72 1014.96 1015.16 1015.80 1016.32 1016.84 1017.40 1017.76 1018.20 1018.48 1018.64 1018.88 1019.00 1019.08
1010.52 1010.48 1010.48 1010.56 1010.68 1010.60 1010.60 1010.72 1010.72 1010.80 1011.04 1011.36 1011.68 1011.92 1011.88 1011.80 1011.92 1012.20 1012.52 1012.60 1012.60 1012.76 1013.04 1013.40 1014.00 1014.36 1014.32 1014.44 1014.72 1014.92 1015.20 1015.68 1016.20 1016.80 1017.48 1017.92 1018.24 1018.72 1018.96 1019.16 1019.32 1019.36
1010.32 1010.28 1010.36 1010.64 1010.76 1010.56 1010.44 1010.48 1010.52 1010.64 1010.84 1011.16 1011.56 1011.88 1012.16 1012.32 1012.44 1012.60 1012.64 1013.08 1013.04 1012.96 1013.08 1013.20 1013.72 1014.28 1014.36 1014.52 1014.76 1015.08 1015.24 1015.64 1016.12 1016.76 1017.52 1018.08 1018.36 1018.60 1019.20 1019.68 1019.88 1019.96
Wind_Speed
6 6 6 6 5 5 6 5 6 6 6 6 7 7 6 6 5 5 5 5 5 5 5 4 4 4 3 3 2 1 1 1 0 2 3 3 3 2 0 1 0 1
7 6 5 5 5 5 5 6 7 7 6 6 6 6 5 5 6 6 5 5 5 5 4 4 4 4 4 3 3 2 1 1 2 2 4 3 3 2 2 0 1 1
7 6 7 7 7 6 6 6 6 6 6 6 5 5 5 5 5 5 5 5 6 6 5 5 5 4 4 4 3 3 3 2 3 2 3 4 3 2 2 1 2 2
9 8 7 7 6 6 6 6 5 5 4 5 5 5 6 5 5 6 6 6 6 7 6 5 6 5 4 4 3 3 3 3 4 3 3 1 0 0 0 2 2 2
10 8 7 7 6 6 6 7 7 6 6 6 5 6 6 5 5 6 6 6 6 6 6 6 6 6 5 4 4 4 3 4 3 3 4 3 1 1 1 1 2 2
8 7 6 7 6 6 7 8 7 7 7 7 7 6 7 7 7 7 7 7 7 7 7 6 6 5 5 5 4 4 4 4 4 3 3 3 2 1 1 1 1 2
10 8 8 7 7 7 7 7 7 7 7 7 6 7 7 7 7 7 8 8 7 7 7 6 6 5 5 4 4 4 4 4 4 3 3 3 3 3 1 1 3 4
11 9 8 7 8 7 7 6 6 6 7 7 8 8 7 8 7 7 7 7 7 7 6 6 6 6 5 5 5 5 4 4 5 4 3 3 3 3 1 4 3 3
11 10 9 9 10 8 9 8 7 7 7 8 9 7 7 7 7 8 7 7 7 7 6 6 7 7 6 6 6 6 6 4 4 5 5 4 3 2 3 3 3 2
11 11 11 11 10 9 10 9 9 8 8 9 9 8 8 8 8 8 6 7 8 7 7 7 7 6 6 6 7 6 5 5 4 4 4 4 4 4 4 3 3 2
12 11 12 12 11 10 11 11 10 9 9 9 9 8 9 9 8 8 7 7 8 8 8 7 8 8 7 6 6 6 6 6 5 4 4 3 4 5 5 4 3 3
12 11 13 13 13 12 12 11 11 10 10 9 10 10 9 9 8 8 8 8 8 8 8 8 8 8 8 7 7 6 5 5 5 5 4 4 4 4 4 3 3 3
12 12 12 12 12 12 12 11 10 11 10 10 10 10 9 7 5 3 4 7 8 7 8 8 7 7 7 6 6 6 6 6 5 4 5 4 3 4 3 3 3 2
12 12 12 12 12 12 12 12 11 9 9 9 9 10 10 11 12 11 10 9 7 8 8 7 7 7 6 6 5 6 6 6 6 6 6 5 4 3 3 3 3 3
6 6 7 10 13 13 12 12 11 10 7 8 8 9 9 11 12 14 15 15 9 8 8 8 8 8 7 7 6 6 6 7 6 7 7 6 5 4 4 4 4 4
7 8 9 9 11 13 13 12 11 10 9 8 9 10 10 9 9 10 10 8 7 6 7 7 7 6 8 13 10 8 7 6 6 6 6 7 7 6 5 4 4 4
10 8 8 9 10 11 11 11 11 10 10 9 9 10 11 9 9 10 8 8 9 9 8 7 6 6 12 14 14 14 9 8 8 7 6 7 7 7 7 6 7 7
9 6 4 5 3 3 3 2 5 7 7 9 9 10 9 8 8 9 9 9 9 9 9 8 6 7 13 15 15 14 12 9 8 8 7 7 7 7 7 7 7 7
9 7 5 6 7 7 7 6 2 2 5 6 7 7 8 8 7 8 9 10 11 11 9 8 7 9 13 15 15 15 15 11 8 8 8 8 7 8 8 7 7 7
1 3 8 7 4 3 6 7 7 3 2 2 4 5 7 8 8 10 10 11 11 11 10 8 8 9 13 15 16 16 15 11 8 8 8 8 8 8 7 7 7 7
3 6 7 5 3 5 5 5 4 2 2 4 6 9 10 10 11 10 10 10 10 10 10 9 7 13 14 16 16 16 15 12 8 8 8 7 7 7 7 7 7 7
5 9 8 7 7 4 4 5 7 9 8 5 3 3 3 7 8 10 11 9 9 10 9 8 7 12 14 17 17 17 17 9 9 9 9 8 8 7 7 7 7 8
6 9 7 9 7 8 8 6 6 6 6 5 6 6 7 8 9 8 8 10 10 9 10 9 8 10 16 18 18 18 13 9 9 9 9 9 8 8 8 8 8 8
9 10 10 8 7 8 8 7 7 6 6 4 4 8 9 7 6 7 7 8 10 10 10 12 9 12 17 18 18 17 15 12 11 11 10 10 9 7 7 7 9 15
6 7 8 8 9 9 8 8 8 8 3 3 2 1 2 5 6 7 5 5 7 10 14 14 12 12 17 18 18 18 15 11 11 11 11 10 10 9 7 6 6 8
8 8 8 5 3 3 3 4 4 4 7 9 8 6 5 4 6 6 9 6 5 9 12 13 14 11 14 19 17 17 16 12 11 12 12 11 10 10 9 7 7 7
Wind_Direction
201 197 202 202 199 199 197 181 175 177 183 182 185 193 190 202 203 203 201 195 200 209 210 212 212 199 185 158 156 139 157 176 328 69 111 118 130 165 126 343 358 244
200 198 205 206 204 202 203 186 172 170 182 183 187 182 189 190 206 202 207 205 208 213 212 204 205 186 180 176 177 165 175 169 79 133 141 146 170 177 177 185 269 272
199 196 201 208 205 202 204 196 178 174 172 190 191 185 192 191 199 206 207 208 208 213 208 205 199 192 180 178 175 196 206 164 163 163 153 173 180 177 207 210 249 237
208 203 202 208 204 198 199 198 192 189 180 183 203 204 201 202 193 204 205 206 205 208 202 198 196 191 187 187 175 198 193 175 173 152 148 159 127 104 272 240 269 304
210 209 204 200 194 194 191 196 195 193 200 202 204 214 210 205 204 210 203 203 199 201 195 193 191 190 194 189 184 179 169 165 167 154 142 158 235 143 210 233 273 344
207 209 204 201 191 184 192 196 196 196 207 210 210 207 212 206 203 205 201 198 196 197 190 190 188 193 188 189 183 178 175 168 175 144 147 170 173 214 216 281 2 78
205 203 202 201 200 191 194 198 192 199 207 214 213 213 207 199 194 196 194 190 188 189 188 189 193 195 192 180 176 173 180 175 165 164 170 185 176 198 256 82 72 72
204 206 204 201 204 204 201 204 204 199 205 208 209 216 207 201 193 185 189 186 183 188 193 190 196 194 187 174 172 175 179 172 170 166 166 173 174 191 110 68 98 95
200 202 205 204 205 210 212 211 214 213 207 209 207 207 205 199 195 191 188 188 186 189 193 194 194 195 186 180 180 180 180 179 173 174 170 171 183 172 96 114 97 112
200 201 202 204 208 210 214 215 215 218 210 211 210 202 205 205 198 194 186 186 189 190 193 193 194 194 188 186 183 181 180 177 174 179 176 178 175 134 126 121 146 139
203 202 202 203 206 210 214 215 216 215 216 215 213 208 203 202 201 197 191 186 188 187 191 189 190 189 185 187 183 180 178 172 169 167 173 169 145 140 140 152 152 147
203 203 204 204 205 208 212 216 217 216 214 214 212 210 200 195 194 198 192 193 194 185 182 185 183 183 185 183 180 173 168 165 159 160 160 142 135 130 147 151 144 153
203 202 202 204 205 207 208 213 217 219 213 208 203 202 191 161 211 182 264 208 197 181 184 182 179 180 180 176 168 164 162 159 148 131 122 121 121 134 140 141 135 133
211 201 200 201 203 206 208 209 213 217 216 205 191 189 184 178 187 197 206 235 199 181 182 176 174 176 172 168 166 164 158 149 137 130 125 120 127 131 133 131 122 111
210 225 214 203 200 202 205 209 211 213 210 205 197 194 191 190 188 194 190 207 189 181 176 174 175 175 171 165 158 156 149 140 135 133 131 128 126 121 118 120 119 115
202 201 204 209 205 200 203 206 210 214 206 204 203 199 197 190 192 192 191 174 166 172 169 169 177 175 173 168 160 153 143 134 130 132 133 135 131 124 120 122 120 114
204 206 199 201 204 202 202 204 209 212 210 203 203 205 201 196 190 194 182 174 167 164 166 166 168 176 168 160 153 143 137 140 139 137 137 136 134 133 129 112 92 88
204 192 189 191 155 104 51 309 226 192 205 198 198 201 209 197 189 187 173 167 162 162 161 159 162 167 161 158 149 145 142 140 141 142 144 141 138 131 124 117 109 101
195 179 122 97 125 147 138 113 30 279 179 181 186 192 185 186 177 166 165 161 158 159 158 155 153 168 162 153 148 144 142 137 139 141 140 140 135 131 127 124 122 112
278 106 95 98 99 145 156 151 169 181 293 178 154 156 162 162 164 162 161 162 163 160 155 156 156 171 158 148 144 142 140 136 135 134 133 133 133 130 127 125 124 119
47 93 124 100 140 184 195 181 125 122 211 232 179 166 161 159 159 159 164 163 159 152 150 156 166 163 158 147 142 138 133 128 126 123 121 120 118 115 116 118 114 112
120 136 141 174 192 197 206 188 174 183 186 205 180 152 142 145 150 154 156 155 152 150 145 146 151 160 149 140 135 130 126 120 118 116 113 109 105 108 110 106 106 107
142 156 178 204 192 195 207 200 197 203 189 183 174 166 158 162 155 155 151 147 148 148 142 139 144 156 143 136 131 126 118 117 115 109 108 106 105 111 110 112 116 120
165 175 185 195 202 199 199 207 207 206 203 182 185 165 160 155 142 135 144 149 147 149 150 142 143 153 140 134 131 131 129 127 124 119 117 113 108 101 109 115 125 125
160 187 194 196 206 213 203 192 199 204 167 126 146 287 110 126 136 134 129 135 149 146 147 138 141 150 142 137 134 132 129 127 125 123 120 119 115 100 82 85 88 98
178 194 203 199 207 222 225 186 162 158 164 169 172 172 165 165 133 147 147 151 159 150 150 146 142 147 143 136 135 131 128 128 129 127 127 123 118 116 106 84 82 84